CZ-6A DEB, 61142

Orbit data source: Space-Track

CZ-6A DEB, 61142 is space debris in LEO originally from a launch on Tue, 06 Aug 2024 UTC launched from the Taiyaun Space Center, China (TSC). Debris objects in space refer to the collection of defunct objects orbiting the Earth. Examples of debris include non-operational satellites, rocket bodies, and fragments generated from explosions, collisions, or faulty payload assembly.

Loading next visibility...
Identifier
61142, 2024-140QL
Orbit
LEO
Country
Flag of CNCN / PRC
Related business
Manufacturer
SAST
Mission
Spacecraft
Bus & Motor
Unknown
Mass
Unknown
Launch date (UTC)
2024-08-06 (1 year ago)
Launch vehicle
Unknown
Launch site
Taiyaun Space Center, China (TSC)
Object type
Payload
Rocket body
Debris
Shape & HBR
Unknown shape, 0.1 m
Radar Cross Section
Small (<0.1 m²)

Expand to show TLE details & history
Last TLE update: 2 days ago

TLE from 2 days ago
0 CZ-6A DEB
1 61142U 24140QL  25352.79422672  .00000932  00000-0  20116-3 0  9998
2 61142  88.8368 281.8088 0109099 150.8570 209.8788 14.53764559 70228
Epoch: 2025-12-18T19:03Z
TLE epoch observation values (Epoch: 2025-12-18T19:03:41.188Z)
Latitude
-0.00007°
Longitude
-91.75744°
Altitude
783.787 km
Speed
7.426 km/s
True Right ascension
18h 47m 14s
True Declination
0° 00' 00"
Sunlit
Object was in daylight at epoch
Visualization orbit readout
Latitude
Unknown
Longitude
Unknown
Altitude
Unknown
Speed
Unknown
Apparent Right ascension
Unknown
Apparent Declination
Unknown
Sunlit
N/A
Visualization observer readout
Local Sidereal Time
08:15:16
Azimuth
Unknown
Elevation
Unknown
Doppler factor
Unknown
Orbital elements
Apogee altitude
787.617 km
Perigee altitude
632.949 km
Semi-major axis
7,088.42 km
Eccentricity
0.01091
Inclination
88.8368°
RAAN
281.8088°
Arg. of periapsis
150.857°
True anomaly
209.26329°
Mean anomaly
209.8788°
Eccentric anomaly
209.57032°
Mean motion
3.6368 °/min
Orbital period
98.99 mins
BSTAR
0.00020116
Loading maneuver chart data...
Computing Atmospheric mass density...

Documentation

Showing up to 5 results
|